Theta_e
323 324 325 326 326 328 328 329 329 330 331 332 332 330 330 328 326 319 312 320 323 329 325 317 311 308 306 305 308 309 295 294 297 297 298 303 301 304 307 309 313 317 316 318 324
322 323 323 325 326 326 327 328 328 329 330 331 331 330 328 325 320 315 325 330 331 328 318 314 308 305 301 304 307 304 295 297 301 298 301 304 302 304 305 306 308 313 320 323 326
322 322 323 323 325 325 326 327 327 328 329 329 329 327 325 325 315 314 326 331 330 328 318 314 310 304 300 301 304 303 299 304 300 300 302 302 301 303 303 303 309 312 317 321 322
321 321 322 322 323 324 326 325 326 327 328 328 328 326 324 320 301 319 328 332 330 320 314 313 307 303 301 298 302 297 303 305 303 301 300 299 301 300 301 302 308 316 321 321 320
320 320 320 321 322 323 323 325 325 326 326 327 327 324 320 311 311 323 327 330 323 316 312 311 305 306 302 303 306 299 301 307 306 300 298 300 298 298 298 300 310 321 321 321 321
319 319 319 320 321 322 323 324 324 324 325 326 325 324 313 305 321 325 325 322 319 316 313 312 307 307 305 306 305 305 304 304 300 298 299 299 297 297 298 309 317 319 318 320 321
319 318 318 319 320 321 321 322 323 323 324 326 325 320 311 309 320 323 322 319 318 316 312 315 315 306 304 300 305 306 300 302 300 298 299 300 297 296 299 313 315 316 316 317 318
318 318 318 318 319 320 320 321 322 321 322 323 325 318 307 318 317 319 320 318 320 320 317 316 316 312 305 304 299 298 299 294 298 300 300 299 293 301 302 307 312 313 313 315 317
316 316 317 317 318 319 320 320 319 321 321 320 313 311 303 321 313 317 317 314 317 318 318 318 315 308 303 297 293 293 289 295 298 301 300 297 293 301 302 300 303 309 313 314 316
316 316 317 317 317 318 319 319 319 318 314 312 311 302 306 307 313 316 318 317 314 313 311 310 308 302 300 295 288 288 290 293 293 298 297 294 294 299 300 299 299 299 309 313 314
315 316 317 317 317 318 316 309 303 299 305 297 297 297 304 311 316 314 317 314 313 309 300 305 299 296 299 300 297 295 292 293 295 299 296 294 296 297 301 298 296 296 297 308 314
316 316 317 317 317 317 311 301 300 301 294 301 302 300 305 310 305 310 316 307 305 298 301 299 295 299 300 299 298 295 294 292 297 297 298 296 295 298 300 300 300 300 298 298 310
315 315 316 316 316 311 306 303 308 303 293 296 300 300 300 305 302 306 311 308 302 299 297 295 296 300 300 298 296 295 293 294 295 292 297 294 293 294 299 300 302 302 303 300 303
314 314 314 314 307 306 302 307 309 304 284 288 293 298 301 302 297 309 312 307 302 297 298 297 301 298 297 296 297 292 298 298 296 291 290 296 289 291 296 300 301 303 302 301 300
314 314 313 312 303 302 305 309 308 303 274 288 293 304 302 297 298 300 312 307 299 299 299 295 296 296 294 296 299 293 300 297 294 291 291 289 288 290 294 294 298 301 302 302 303
312 312 312 307 306 305 309 310 305 285 275 286 294 294 295 296 295 300 304 308 306 299 300 298 299 299 298 300 301 298 295 293 292 292 287 290 290 290 292 295 297 300 302 305 303
311 311 309 306 300 308 310 303 285 279 288 285 288 292 291 291 293 295 296 297 294 290 291 296 295 297 300 295 297 297 294 283 284 284 282 288 287 293 294 297 298 300 300 302 303
311 311 308 304 307 309 304 291 278 282 284 291 291 291 287 290 291 292 293 291 297 296 292 289 285 294 298 296 293 295 294 282 277 278 281 285 284 289 298 303 300 300 300 299 299
310 305 301 303 307 306 294 282 279 282 287 289 291 286 286 290 288 289 290 290 293 296 290 289 289 297 296 296 298 294 291 291 282 273 278 282 285 291 295 294 297 298 298 297 296
301 300 299 304 307 301 288 284 284 288 290 291 283 287 284 286 287 287 287 292 292 297 298 294 287 294 295 297 296 296 297 287 283 274 274 280 281 285 289 294 295 294 293 293 294
299 292 299 305 303 294 283 283 282 289 290 287 287 287 287 286 288 287 286 290 294 295 298 295 291 288 293 294 293 292 292 290 290 283 278 275 280 289 292 297 295 294 294 294 293
290 284 300 302 287 285 282 282 288 289 292 288 287 287 285 289 288 288 287 290 298 298 293 297 292 286 290 291 295 295 294 294 287 282 282 281 281 290 292 292 294 292 293 293 293
285 288 299 297 281 282 283 284 286 286 286 287 285 287 288 286 284 289 289 295 298 299 296 295 289 284 285 289 292 293 294 296 292 286 285 279 283 289 287 289 291 291 292 292 293
285 282 289 291 282 280 279 281 282 287 287 289 287 288 287 284 286 283 289 293 296 299 300 297 290 289 285 288 292 290 292 294 293 287 286 286 285 286 287 288 289 291 292 292 294
280 275 279 281 283 280 283 283 282 282 286 287 284 286 285 281 284 282 286 287 290 298 299 296 285 290 289 290 292 291 292 293 291 291 286 290 288 291 288 288 290 292 292 291 293
282 283 284 275 282 284 282 279 281 283 285 283 283 285 286 282 283 283 286 287 286 295 296 297 285 288 284 289 292 289 292 293 293 293 292 291 290 296 294 289 288 290 291 291 294
289 287 283 284 281 282 281 282 282 285 287 287 286 285 284 286 289 289 291 293 291 295 294 293 289 285 283 285 288 284 290 292 293 295 294 289 294 292 289 290 291 290 291 294 294
Wind_Speed
20 19 16 13 15 13 11 12 12 11 9 13 13 12 11 12 11 3 4 4 5 5 3 2 2 3 3 2 1 2 3 2 3 5 3 3 4 1 2 5 4 3 5 5 10
21 19 18 15 14 14 12 11 13 12 10 11 15 15 15 10 4 4 3 6 5 7 4 5 3 1 1 2 1 2 4 6 1 4 5 5 5 6 4 3 3 3 4 9 11
21 20 19 17 13 14 14 12 12 14 13 13 14 17 15 7 5 6 9 12 7 6 3 2 3 2 2 1 3 2 5 3 2 3 4 5 4 2 8 3 7 8 8 9 10
21 21 20 18 16 14 15 12 13 13 14 17 18 15 12 1 6 5 9 16 10 2 3 4 3 5 4 4 3 2 5 2 1 1 1 5 6 4 5 6 7 9 16 13 13
22 22 21 19 18 16 16 13 12 14 14 18 20 20 7 2 5 2 10 7 5 3 4 3 4 4 5 4 1 3 2 2 2 4 2 3 4 5 5 3 5 12 13 15 12
23 22 21 19 19 18 17 15 12 11 15 18 22 17 5 13 5 4 9 13 2 2 3 3 6 5 3 4 5 2 5 2 2 3 3 5 0 0 1 6 8 13 13 13 14
25 23 22 21 19 18 17 16 13 11 10 21 21 5 2 8 7 10 7 3 8 4 2 2 3 3 3 3 4 2 3 2 5 4 2 1 5 5 2 7 10 10 11 11 12
26 23 23 22 20 18 17 17 14 13 10 8 18 5 5 4 2 12 11 7 2 5 2 6 6 3 3 1 2 5 2 3 4 6 3 5 7 5 8 9 10 10 10 12 14
28 26 24 22 18 17 18 17 17 14 13 11 5 3 5 2 11 8 6 10 7 5 5 6 4 3 3 6 2 2 4 6 3 8 4 6 4 8 4 9 10 11 12 12 11
29 27 25 24 21 19 17 17 15 15 8 6 3 4 4 7 8 6 5 11 5 6 6 3 2 4 4 6 8 5 4 4 8 7 6 5 9 8 5 7 11 10 12 12 12
30 30 28 25 23 22 18 10 8 4 12 9 9 1 8 7 7 8 9 10 5 4 6 10 9 10 14 6 2 6 4 6 3 5 6 9 12 11 11 4 8 8 8 12 15
29 30 30 26 24 24 14 9 17 7 11 10 5 4 2 3 9 12 13 11 10 12 11 4 18 11 8 5 5 3 6 5 5 3 6 7 13 11 8 8 9 13 11 12 12
30 29 29 27 24 17 17 12 12 7 5 9 4 5 5 3 5 17 20 8 10 12 18 17 5 9 13 10 9 8 6 5 5 2 4 2 10 5 9 8 10 11 14 10 15
30 30 28 26 15 12 11 10 11 5 5 5 13 7 5 3 4 10 20 11 8 21 23 15 13 18 14 19 15 15 10 4 3 3 4 4 8 5 7 17 11 17 13 16 13
31 30 28 27 12 14 11 11 6 6 7 12 12 9 11 10 10 7 14 9 15 10 12 18 21 21 18 21 17 8 11 8 3 3 0 4 4 7 4 7 12 12 17 16 17
32 29 29 10 8 12 16 15 9 8 10 8 12 19 17 13 4 7 14 9 2 8 16 7 6 12 12 10 14 7 7 5 4 2 10 9 8 9 8 9 9 7 11 13 13
29 29 25 10 13 13 16 13 12 9 4 9 14 22 26 16 16 9 22 24 15 14 17 18 13 6 11 10 4 7 13 4 6 6 12 5 9 17 7 11 8 10 10 10 10
29 28 15 4 13 16 10 10 10 2 7 2 13 20 25 19 24 10 17 17 23 16 9 16 9 18 16 16 15 24 18 7 10 6 7 2 11 9 14 22 10 8 8 7 8
29 7 7 5 14 13 9 12 10 6 6 10 14 17 13 15 11 19 15 23 17 15 12 14 15 17 9 5 16 17 19 8 7 3 4 6 8 9 11 11 9 13 9 9 8
10 11 7 8 13 12 11 8 2 0 5 4 7 10 16 24 13 25 21 21 19 23 20 4 7 13 6 5 1 21 13 7 1 7 5 6 6 9 7 15 9 8 11 9 7
9 8 5 11 5 11 12 5 5 5 6 4 3 7 9 11 18 20 14 8 26 22 25 9 4 4 6 16 22 8 17 6 7 5 6 2 9 9 14 17 11 10 8 8 9
5 4 5 8 5 3 5 8 6 11 2 4 5 3 4 6 19 17 27 26 20 23 30 18 7 11 22 2 5 10 15 18 10 13 4 3 8 3 10 5 7 8 8 7 7
5 4 3 4 5 3 4 4 5 6 6 7 7 4 5 6 1 20 18 20 13 19 21 20 5 7 8 3 3 21 13 24 9 5 16 6 8 3 5 5 7 11 8 7 7
5 5 3 2 2 7 5 3 6 5 5 6 5 6 4 4 8 6 6 3 14 22 15 9 7 17 20 33 20 28 31 26 22 12 14 19 6 4 4 6 6 7 8 9 8
3 4 3 10 11 5 8 10 7 6 6 10 4 12 9 5 8 9 8 9 17 28 21 11 6 18 7 7 15 22 25 26 25 30 14 28 13 11 10 12 14 11 7 8 8
6 7 2 4 6 10 8 7 12 10 9 8 10 16 13 12 16 10 10 12 21 25 29 15 4 5 4 7 20 18 27 25 27 24 25 18 16 13 10 5 5 11 10 9 9
1 2 7 10 8 11 15 16 18 9 6 13 9 7 12 23 18 16 7 11 12 10 29 22 16 12 15 4 9 13 29 33 33 28 34 22 32 7 10 17 18 14 13 11 8
Wind_Direction
212 207 199 195 198 193 192 196 185 177 171 170 165 154 127 126 122 115 216 242 217 186 116 98 10 335 20 311 304 93 71 236 194 166 193 174 122 7 87 102 64 13 151 192 147
210 207 201 192 191 193 192 193 184 181 175 152 160 145 134 129 92 206 251 289 241 171 123 152 180 154 49 261 280 124 133 209 289 186 172 169 151 151 111 112 35 27 5 127 136
209 207 199 195 185 190 193 187 190 180 172 140 144 131 133 141 167 217 207 267 262 180 96 131 106 128 189 165 212 193 195 216 333 30 124 151 121 151 127 220 199 185 167 147 148
203 205 197 192 188 192 188 188 187 179 179 158 142 142 131 138 187 224 174 212 217 146 90 137 104 123 172 201 249 195 229 235 220 112 314 170 146 167 182 216 195 174 166 161 169
200 201 200 190 187 189 190 184 180 187 182 171 149 141 127 166 221 189 195 188 156 164 142 165 143 134 186 196 226 204 263 259 267 189 211 150 175 191 230 246 98 141 163 176 182
197 195 195 187 184 186 186 183 176 182 184 151 153 154 134 182 176 99 130 137 164 236 112 182 193 189 205 196 188 255 224 228 208 192 211 176 175 166 251 130 128 156 178 185 189
192 192 194 186 180 181 186 181 174 157 185 159 169 168 213 170 154 145 131 121 147 191 195 253 3 213 171 185 229 222 336 206 201 187 231 128 294 222 175 147 159 183 186 192 201
188 187 186 185 178 176 182 182 170 162 138 145 191 173 217 223 133 158 138 113 72 79 30 319 334 218 184 264 43 151 205 140 229 150 261 144 251 251 226 164 191 193 196 200 208
186 184 182 182 177 171 172 171 170 154 126 100 123 161 227 74 203 183 150 142 126 88 45 332 5 236 112 119 50 335 175 180 238 199 149 181 254 245 227 182 209 201 204 207 211
181 176 178 177 172 169 163 161 157 138 101 76 63 119 206 200 146 135 151 140 123 99 96 20 278 240 174 157 205 177 153 186 195 216 198 210 242 271 265 188 220 204 212 209 209
178 171 171 171 169 168 157 139 145 193 189 178 184 267 141 153 118 170 150 128 100 107 178 155 238 215 195 182 197 162 169 185 221 224 177 222 246 246 259 248 257 247 218 221 218
173 172 168 168 167 168 157 181 178 153 175 240 88 249 332 188 158 191 160 162 166 180 159 148 237 218 167 165 189 230 202 229 294 267 186 263 255 242 251 239 218 236 232 219 226
171 172 166 162 164 158 179 182 156 102 117 207 167 197 226 156 167 184 172 169 178 166 180 203 224 177 176 185 187 214 201 184 213 210 198 334 269 219 249 241 246 238 238 213 212
167 168 163 153 147 163 186 187 162 78 95 228 199 248 186 133 231 184 188 159 195 195 181 211 213 184 189 196 189 211 168 200 208 191 222 137 280 252 236 241 242 242 230 232 211
163 163 162 159 139 180 161 159 130 57 213 187 172 177 153 191 115 232 188 204 194 183 170 196 182 194 199 201 179 219 164 173 138 170 222 197 260 269 222 246 245 234 228 227 228
162 160 160 142 131 155 144 148 145 191 214 165 148 170 159 186 203 131 182 216 331 176 201 202 188 184 202 182 183 147 83 72 83 134 241 199 207 232 204 212 247 240 236 228 230
155 158 158 154 158 142 144 152 194 209 163 165 170 173 178 177 193 178 187 195 197 181 193 191 194 150 152 152 124 165 155 178 212 203 247 205 208 249 232 238 227 246 253 245 226
153 154 159 152 143 138 147 185 201 176 171 223 159 169 187 154 201 187 177 198 218 222 189 199 201 190 185 191 184 192 172 164 187 194 231 97 234 249 226 236 223 233 237 263 247
144 131 134 164 147 143 162 195 207 174 155 149 151 170 181 193 169 195 210 209 209 192 191 196 212 183 196 182 158 189 200 155 92 32 88 220 283 298 263 253 228 219 232 239 247
135 145 147 156 149 151 189 201 114 24 112 163 162 175 181 189 183 189 194 215 220 195 210 263 179 195 224 130 296 185 169 164 41 154 223 252 267 233 227 233 233 209 209 211 214
122 136 151 147 91 169 202 197 138 273 123 124 145 166 199 171 198 195 205 213 202 203 195 211 252 180 163 202 186 153 189 189 147 165 185 196 252 212 203 221 209 211 205 191 184
89 111 145 146 141 144 148 158 165 146 103 96 120 117 134 194 204 204 215 203 194 193 191 188 235 181 197 164 237 206 198 188 188 211 229 161 269 226 232 243 182 183 183 180 176
90 98 37 92 168 139 128 161 149 136 162 156 177 189 175 158 289 220 216 228 185 177 187 190 228 177 165 289 360 200 201 202 196 91 215 157 248 345 353 191 192 165 172 176 173
103 125 101 112 158 131 125 150 175 199 152 151 167 146 143 161 169 243 274 295 199 208 180 186 196 226 198 198 182 191 197 194 196 211 213 226 227 276 286 211 172 171 182 180 185
56 202 186 175 208 142 143 169 164 177 197 173 184 198 180 175 172 210 213 239 290 197 207 182 240 217 243 178 193 208 201 193 200 221 202 238 222 226 216 211 198 181 173 179 204
128 138 90 144 131 171 180 208 197 193 162 198 210 197 185 213 207 199 207 232 235 203 201 192 187 242 248 209 192 190 198 200 212 213 228 220 240 197 204 162 202 197 182 192 202
70 76 108 150 133 172 212 200 213 162 240 223 203 204 228 231 238 249 260 253 195 230 201 204 199 183 224 245 169 203 195 200 209 212 218 211 227 169 190 189 201 202 191 191 191